RH
68 54 64 61 72 72 72 60 54 54 49 43 55 60 61 81 65 65 65 65 65 76 78 81 86 84 84 84 85 84 78 74 73 74 75 78 78 78 79 79 82 80 74 70 70 68 70 77 81
60 55 63 77 80 83 68 64 62 52 50 51 61 69 74 83 76 75 70 51 73 82 81 80 90 85 85 85 85 86 81 76 72 71 74 74 75 76 75 76 77 76 72 68 63 71 72 81 81
49 59 70 83 84 80 73 62 55 51 52 46 65 70 74 82 74 68 38 40 83 85 81 80 90 88 84 86 86 86 85 82 76 72 70 72 73 73 75 76 76 76 70 65 64 74 75 80 82
66 62 66 83 85 73 63 61 61 62 47 47 56 67 67 63 57 32 27 66 85 86 82 87 89 88 87 84 86 86 84 82 80 77 72 71 74 78 78 78 78 78 74 72 72 75 76 81 83
69 72 83 83 78 68 66 61 45 55 50 45 50 70 70 53 24 20 36 87 86 89 88 87 94 93 88 84 83 86 87 84 84 82 80 78 77 77 82 80 80 81 77 73 71 74 79 78 81
71 70 83 89 79 64 59 37 48 53 48 41 38 55 70 31 20 20 30 57 73 80 72 76 92 95 94 95 94 88 83 85 85 85 84 82 80 79 82 82 81 82 80 75 75 79 80 79 81
74 80 83 80 76 66 55 33 47 43 48 44 32 53 58 26 22 19 21 25 38 43 50 61 63 67 83 94 96 94 93 89 85 85 86 87 87 84 86 85 84 82 80 79 80 81 82 81 81
77 73 81 79 73 66 39 32 33 28 36 22 24 51 56 26 21 18 18 20 24 40 48 53 58 59 68 72 85 97 95 96 96 92 91 92 93 90 94 92 86 82 80 82 82 84 84 84 82
57 65 72 62 59 55 37 33 25 22 20 18 18 28 23 18 21 21 23 22 24 27 43 51 55 56 59 59 63 88 93 96 98 97 98 97 92 83 84 88 91 84 82 81 83 84 85 86 89
62 71 64 52 52 51 34 31 26 22 18 15 16 21 20 20 23 24 23 22 27 28 36 46 54 58 58 48 62 68 69 78 82 83 91 93 95 93 87 90 96 91 87 84 81 84 87 90 81
68 55 52 42 36 32 30 27 26 22 18 17 16 20 22 24 24 24 23 22 26 29 37 42 51 56 59 62 68 74 77 84 86 80 87 86 93 98 99 97 96 92 91 77 80 83 82 80 81
58 51 41 37 38 34 31 28 26 26 18 18 23 24 25 24 24 24 24 24 27 33 36 40 45 55 59 58 64 67 69 75 78 80 74 83 93 95 96 99 99 96 90 85 81 81 82 83 80
44 36 36 35 34 32 33 33 28 29 25 24 26 26 25 23 24 25 26 28 30 37 41 42 48 52 57 59 62 61 65 69 68 72 71 82 85 88 90 93 96 98 95 88 89 82 86 84 83
38 39 36 35 33 31 34 33 34 27 28 27 28 25 24 26 26 28 28 28 36 43 45 47 49 53 54 57 59 60 64 62 65 69 68 64 80 88 91 91 91 95 96 95 88 87 87 87 83
39 35 32 32 35 35 39 22 36 32 29 24 21 22 26 32 29 29 30 32 45 45 48 48 45 49 53 54 59 61 64 59 70 67 61 60 61 67 81 90 88 89 88 89 96 93 88 87 87
29 27 23 29 36 36 27 14 22 29 27 25 27 32 37 33 37 51 49 49 45 43 44 47 45 50 52 55 56 56 60 65 68 69 68 63 58 59 66 76 80 85 83 84 88 94 94 93 90
23 18 22 21 44 40 36 23 23 29 26 24 33 39 40 51 54 50 44 43 43 44 45 49 52 54 56 57 59 61 62 66 63 66 65 61 61 61 66 72 76 75 82 83 79 85 93 94 92
18 16 22 25 30 42 38 32 25 25 27 27 41 43 38 57 51 44 40 43 43 47 50 53 54 54 57 61 62 64 66 68 69 72 72 64 60 58 64 67 70 81 83 84 85 85 85 92 90
28 28 30 33 41 41 35 34 27 28 41 46 45 42 49 58 50 42 41 43 47 50 54 56 58 54 55 59 63 59 59 61 60 63 62 59 60 63 68 71 70 76 84 78 81 85 87 89 92
34 30 25 30 37 41 48 49 48 52 51 45 40 53 60 52 42 43 44 47 51 56 60 63 58 55 54 57 59 59 59 59 59 59 61 60 63 65 63 67 69 67 70 72 72 78 86 91 90
32 26 34 32 42 59 66 39 30 44 48 53 50 57 53 45 46 47 50 52 57 61 63 62 61 58 54 54 58 59 60 61 63 63 65 65 61 67 67 68 71 68 67 69 74 75 79 84 85
19 38 43 47 50 50 59 52 36 47 48 50 56 61 54 46 48 51 54 56 60 62 68 68 64 58 54 55 62 66 69 71 65 65 66 69 66 66 67 67 65 66 72 74 73 71 73 78 84
30 52 57 58 76 76 66 78 35 51 42 42 49 62 60 44 47 52 58 62 63 70 74 70 63 60 58 58 60 66 70 70 67 67 73 74 74 71 70 70 70 72 74 76 75 75 75 76 79
56 49 58 58 74 73 60 66 29 26 38 43 49 52 61 41 44 54 64 69 72 73 72 66 64 62 61 62 64 68 72 74 77 76 78 76 75 74 73 72 72 71 71 74 80 82 77 78 80
43 51 66 63 71 67 56 70 40 28 33 42 41 50 55 43 46 58 72 79 76 77 72 68 67 71 67 68 70 70 71 75 79 79 80 80 80 77 75 74 76 74 71 71 69 74 77 87 88
56 58 70 32 53 55 50 69 21 38 48 50 47 56 46 37 48 64 80 82 84 79 74 72 73 74 72 72 74 72 71 74 76 77 78 76 76 78 75 75 74 73 69 69 70 73 72 75 88
70 67 50 81 93 73 58 40 25 30 36 44 56 56 43 38 51 70 81 84 86 82 76 74 75 76 75 76 76 72 71 74 77 77 76 80 75 77 79 79 79 78 74 72 78 84 84 78 82
69 54 67 81 40 47 61 50 20 14 17 49 64 65 51 42 54 74 82 87 85 81 79 76 76 78 78 79 76 74 75 74 77 79 82 80 80 84 89 88 88 87 79 76 74 76 74 78 78
82 87 76 69 67 63 63 57 40 21 21 44 48 60 57 49 58 78 85 87 86 83 80 80 80 82 83 81 79 79 78 78 79 79 82 82 84 90 96 96 95 93 94 82 81 80 85 85 84
61 65 64 71 64 72 76 52 33 31 32 38 48 56 60 56 62 82 89 90 89 88 85 87 85 86 82 80 81 82 81 79 81 86 86 85 96 97 98 98 98 97 95 83 82 84 86 88 91
Wind_Speed
4 4 2 4 2 3 2 4 1 2 1 1 2 2 3 3 1 2 3 3 14 4 5 8 7 9 10 11 11 11 11 10 11 11 11 11 12 12 11 12 10 12 13 12 14 14 13 13 14
2 1 4 3 3 2 3 3 4 3 1 4 1 0 2 3 1 2 4 14 11 3 5 5 5 5 7 10 11 12 12 12 12 12 12 12 13 13 13 13 13 13 14 14 14 16 15 12 14
2 3 3 4 3 4 4 5 4 1 2 2 2 3 1 2 2 4 7 12 9 4 4 4 6 7 8 7 11 12 13 13 13 13 13 13 14 14 14 14 14 14 15 16 15 15 17 14 14
2 3 3 3 4 5 4 2 1 2 1 4 0 4 2 1 1 4 10 10 5 5 2 2 6 8 9 9 10 12 13 14 13 13 13 14 14 14 14 15 16 16 15 16 16 13 14 14 13
3 2 3 1 3 4 3 0 2 1 1 3 3 1 3 2 3 6 8 9 7 6 5 4 8 9 9 9 10 13 15 15 15 14 14 14 14 15 16 17 17 17 16 17 17 16 12 11 12
3 2 2 3 4 4 2 1 1 1 2 2 3 1 2 1 5 7 7 10 10 10 9 9 9 9 7 4 8 8 12 15 15 15 15 15 16 16 16 17 19 18 18 16 16 16 17 14 11
6 3 3 3 3 3 2 4 2 1 1 1 2 1 1 3 4 4 4 7 9 9 9 8 9 8 8 10 10 10 9 11 14 15 15 15 14 15 15 17 18 19 17 17 17 16 15 16 15
5 4 3 3 3 4 3 4 1 3 1 5 1 3 2 1 6 4 3 5 7 7 8 8 8 8 9 9 11 9 11 11 10 11 13 12 12 13 13 14 15 18 17 16 15 16 16 16 16
3 4 2 4 6 2 3 3 2 1 2 2 1 3 3 3 4 5 5 5 3 4 6 5 6 7 7 7 8 8 9 10 11 10 11 9 7 10 13 12 13 16 17 19 17 18 16 14 13
5 4 8 3 3 3 1 1 1 1 3 2 2 2 2 4 6 4 4 5 3 4 4 4 5 6 6 5 7 7 7 5 6 6 9 9 7 8 9 10 13 14 13 14 15 18 17 13 8
3 5 4 3 3 2 1 2 2 3 5 6 3 2 4 4 5 3 2 3 3 2 2 4 4 5 6 5 4 3 3 3 3 5 4 4 6 8 2 4 5 7 10 8 10 11 9 11 9
4 3 4 3 1 1 2 1 3 6 5 5 1 3 3 4 4 4 5 4 3 3 3 3 5 4 5 3 4 4 4 4 4 4 4 2 1 2 6 4 4 6 6 8 9 7 9 12 12
4 3 1 1 3 4 2 5 6 8 8 5 1 2 2 6 7 6 5 5 5 3 4 5 5 5 5 5 4 4 4 4 4 4 5 3 4 3 2 4 6 6 7 7 8 9 9 11 13
4 3 1 1 3 2 2 3 1 3 3 4 0 6 7 7 7 5 4 5 2 4 4 5 6 5 6 5 6 5 4 5 4 4 4 6 3 4 3 3 3 3 8 8 9 10 10 11 12
3 3 1 3 3 0 1 6 8 5 1 4 6 8 8 6 4 5 4 1 3 3 4 5 6 6 7 8 6 6 6 7 6 6 7 8 7 6 6 4 3 3 5 10 8 8 9 10 11
3 4 1 0 5 0 1 8 2 5 4 6 8 7 7 6 2 2 5 6 5 4 5 5 7 9 9 9 7 7 7 6 7 6 6 9 10 9 8 7 7 5 4 3 7 11 10 10 11
4 2 3 4 3 4 2 7 4 5 4 11 6 6 5 4 4 4 5 5 5 6 7 8 7 7 9 9 8 8 9 7 7 7 7 10 11 11 9 8 8 9 6 4 5 7 10 11 11
5 3 3 4 2 2 5 15 12 9 5 14 5 6 6 6 5 3 4 4 4 3 3 5 6 8 9 7 7 6 6 7 6 6 7 10 9 12 11 10 10 9 8 7 6 8 7 12 13
6 3 2 3 1 4 4 10 19 11 7 9 6 7 7 7 4 1 3 2 1 1 5 6 7 9 8 7 8 8 9 8 8 7 11 12 11 13 12 10 10 8 8 9 10 10 11 11 13
4 2 4 3 0 1 6 21 11 4 5 6 7 7 8 5 1 3 5 4 4 6 6 6 7 12 11 8 8 8 9 8 9 9 11 12 13 12 12 12 11 12 10 13 12 12 10 10 11
2 2 1 2 5 1 7 8 5 2 2 2 3 4 4 4 2 4 6 4 4 6 8 9 11 14 12 13 9 8 9 8 9 8 8 9 11 11 12 12 11 12 12 12 13 13 14 12 12
2 4 3 3 4 2 4 6 6 3 6 3 6 6 6 2 2 3 5 10 8 9 7 8 12 14 12 14 11 14 11 12 9 10 9 10 13 14 13 14 14 14 11 14 13 13 14 11 12
3 3 4 1 2 2 3 4 10 3 6 9 9 8 8 4 4 6 5 6 8 7 6 8 10 13 13 13 13 11 14 10 10 10 13 13 11 14 14 14 14 14 12 14 16 15 15 12 11
6 5 5 3 1 4 1 4 8 5 6 3 3 8 8 4 5 5 5 7 7 5 6 8 11 12 14 13 15 15 16 15 13 13 11 11 10 10 13 14 14 15 15 15 13 12 18 15 14
3 5 4 7 5 6 2 1 12 5 5 4 5 8 8 3 6 6 7 7 8 9 10 10 12 14 14 14 15 15 16 15 17 15 11 13 10 10 11 14 13 12 15 15 15 15 14 12 11
4 6 7 7 3 5 3 8 8 5 1 5 5 5 4 5 5 6 7 6 6 9 10 11 13 14 14 15 15 14 16 12 13 13 12 13 13 12 13 13 14 15 16 16 16 13 14 14 12
4 2 4 10 1 3 3 8 11 4 8 7 7 6 7 6 5 6 5 4 6 7 9 12 13 14 14 14 14 15 16 16 15 17 16 13 16 13 14 15 16 16 16 17 13 9 11 15 14
2 5 4 3 1 4 5 7 7 4 4 4 8 11 9 5 6 6 4 5 4 6 7 10 12 14 14 14 13 13 16 17 16 15 16 18 17 16 18 16 15 15 16 16 15 14 14 13 11
3 0 4 4 3 6 1 8 9 8 7 7 9 9 9 7 7 6 6 5 6 7 8 10 11 13 13 12 13 15 15 16 15 16 15 16 17 16 17 14 15 15 15 16 15 16 12 11 12
1 5 5 6 5 1 3 11 3 7 6 5 9 8 7 6 7 4 5 6 6 7 8 9 10 11 12 13 13 14 15 16 16 16 17 17 16 15 14 14 13 13 14 14 14 14 13 14 13
Wind_Direction
329 355 85 50 85 64 202 235 262 283 233 14 285 233 128 62 82 126 314 8 336 315 221 205 215 171 177 181 174 167 177 181 177 175 177 180 182 185 187 185 187 187 186 186 175 175 173 171 165
344 110 49 83 108 143 242 245 214 207 269 325 217 99 80 83 34 354 8 341 333 352 177 184 210 213 184 189 187 177 188 194 194 191 188 192 193 193 196 199 196 198 198 199 196 185 175 170 168
126 48 97 123 139 187 206 212 183 264 347 11 141 36 78 43 31 2 325 324 339 40 137 183 201 217 223 203 195 197 194 202 204 204 204 204 206 203 201 198 201 200 196 193 193 181 171 158 163
70 30 48 111 216 243 213 140 158 332 59 73 108 74 88 69 52 308 319 341 17 22 29 265 250 241 217 220 207 212 213 209 208 208 212 217 218 213 211 207 198 201 202 183 183 181 175 158 163
44 57 89 155 244 257 249 353 338 347 109 22 8 87 94 57 340 0 358 11 41 48 32 18 17 357 304 266 227 215 221 218 218 214 214 217 222 227 216 207 206 204 205 200 188 174 173 166 174
55 101 88 226 251 260 265 28 214 90 23 1 59 118 135 12 27 349 16 38 43 47 38 34 25 18 4 328 359 319 244 228 225 220 221 224 222 223 234 221 216 208 207 201 181 181 166 167 184
123 97 202 187 254 278 191 336 114 150 146 159 303 117 17 31 355 353 40 52 51 43 39 30 33 31 29 21 4 359 347 294 241 232 229 231 234 233 227 222 227 210 207 200 194 180 171 171 180
107 95 140 233 203 248 13 3 82 63 134 306 285 182 204 291 331 347 53 61 58 41 38 22 22 22 24 26 23 340 358 345 324 295 251 242 233 233 228 219 217 199 199 193 191 185 181 182 180
130 74 193 235 168 240 9 65 39 300 270 308 233 169 138 323 348 17 6 7 35 44 38 26 27 25 20 31 17 16 21 3 336 317 289 267 257 246 240 230 215 208 197 197 188 185 188 188 186
94 139 214 203 196 209 221 127 289 350 2 258 306 205 42 7 4 357 358 333 338 12 8 21 28 27 28 38 32 25 25 24 34 18 28 7 312 251 237 231 220 214 207 198 195 188 187 183 186
159 190 202 221 193 180 218 277 186 183 261 219 164 268 342 348 347 334 296 280 295 326 345 15 21 24 25 26 24 22 21 15 19 26 26 354 338 325 210 256 241 227 217 212 204 193 192 189 177
142 198 182 182 160 187 230 344 279 192 230 110 295 287 289 318 312 303 292 281 291 296 338 15 21 16 20 19 22 11 11 3 3 3 8 11 297 221 359 272 236 240 220 208 209 196 188 190 186
155 186 169 13 297 270 322 252 242 256 260 266 346 196 275 309 289 286 282 286 291 295 351 8 4 4 8 14 3 359 355 347 336 335 337 346 327 302 198 242 339 240 226 210 201 198 189 191 184
154 130 247 308 26 335 321 275 97 274 15 150 3 300 298 301 284 292 311 306 329 352 12 2 4 18 4 357 341 330 323 310 304 305 303 314 300 294 293 263 237 267 300 210 214 198 194 193 191
113 130 154 34 332 274 313 279 234 247 11 63 326 298 294 307 307 279 259 168 61 60 25 14 357 352 345 336 329 324 311 317 301 290 283 280 287 285 268 247 232 221 228 306 206 216 207 198 193
86 66 152 72 354 343 79 270 282 143 57 314 312 301 315 315 2 74 83 98 76 50 20 360 353 345 338 329 322 320 315 306 297 291 284 280 280 274 270 262 241 219 207 202 306 209 199 203 198
13 209 212 305 45 321 140 274 278 183 336 293 299 289 280 153 117 94 81 78 52 26 7 344 336 325 320 315 308 302 299 292 288 283 280 276 271 270 264 260 254 235 228 226 256 297 215 200 202
189 197 222 244 332 342 257 262 264 263 248 275 273 261 216 167 142 115 56 38 31 2 326 304 315 317 314 296 294 292 287 278 281 283 282 283 280 277 273 267 262 237 223 226 220 229 283 232 203
104 107 253 262 320 299 254 278 277 275 230 256 251 197 183 172 159 84 16 349 310 312 331 324 317 320 319 317 316 312 306 298 291 285 285 282 278 273 269 265 265 254 242 231 222 227 242 274 212
90 112 247 276 210 299 337 290 282 276 245 209 190 171 172 144 38 341 341 341 337 313 303 305 316 328 329 317 307 296 300 291 293 289 280 274 269 265 265 263 261 259 260 252 236 222 225 231 256
115 172 233 268 319 68 296 291 347 28 194 113 121 158 149 128 343 317 327 309 312 336 338 328 326 324 321 311 305 302 292 288 290 281 279 276 277 274 268 265 260 257 253 250 240 225 216 229 227
183 117 93 335 19 269 358 276 306 337 299 242 193 188 178 139 306 280 310 333 337 325 320 326 321 318 316 312 305 302 293 293 287 283 280 279 276 272 266 261 259 260 255 246 244 235 232 219 228
140 110 97 58 80 11 33 73 271 351 264 232 220 209 204 211 280 306 318 299 308 306 318 311 313 313 310 310 303 297 292 287 290 285 283 272 264 263 263 265 264 258 253 252 246 241 230 229 229
139 85 58 51 31 28 245 126 276 205 213 296 217 206 198 230 292 304 304 304 295 301 308 316 320 311 311 306 300 291 286 288 288 285 282 276 272 267 255 255 256 259 256 254 258 248 235 227 226
100 72 340 346 8 215 27 235 247 249 230 222 269 214 193 261 304 322 318 306 322 320 326 329 324 313 310 304 297 296 291 285 280 279 275 275 269 264 256 251 247 249 257 254 249 248 247 242 220
157 151 156 212 232 275 12 239 251 211 220 254 263 199 181 286 293 287 268 290 299 315 321 321 317 309 309 306 300 298 296 291 286 280 278 278 277 268 259 252 252 251 247 251 247 241 241 240 227
189 166 145 102 62 40 252 281 284 244 252 236 215 217 237 281 283 269 298 304 305 306 316 322 313 306 305 305 304 307 304 300 293 292 288 283 281 269 262 252 249 248 248 250 256 248 236 229 227
132 140 84 1 152 270 287 279 244 268 237 215 224 226 230 264 307 287 306 305 294 306 316 309 307 306 307 309 311 309 308 305 299 294 289 286 283 277 272 250 244 242 245 246 247 252 244 239 238
130 62 54 113 131 173 248 261 212 211 196 226 246 237 229 255 291 303 314 303 299 305 313 315 318 315 314 315 314 313 312 308 303 299 292 289 286 280 280 245 242 239 239 238 234 240 249 241 231
190 174 156 129 223 145 142 270 218 220 233 227 258 260 240 242 279 288 290 300 306 308 322 321 319 320 320 316 315 319 314 314 312 305 300 297 289 281 271 256 236 234 237 237 239 241 239 231 235